When you browse on this site, cookies collect data to enhance your experience and personalize the content and advertising you see.
Visit our Privacy Policy to learn more. By continuing to use the site, you agree to this use of cookies and data.
  • Em Portugal
  • Lista de países
  • Para 7 dias
  • Temperatura da água
  • Mapas de satélite
  • Mapa do tempo
  • Widgets de tempo
  • user-avatar
    Iniciar Sessão

    Previsão horária em Pobadz

    Hoje, 18 Dezembro, Terça-feira

    Tempo Temperatura Precipitação Vento Pressão Humidade
    00:00 -2°C° 0 mm 1 m/s 761 mmHg 82%
    01:00 -4°C° 0 mm 2 m/s 762 mmHg 81%
    02:00 -4°C° 0 mm 2 m/s 762 mmHg 81%
    03:00 -3°C° 0 mm 2 m/s 762 mmHg 82%
    04:00 -3°C° 0 mm 2 m/s 762 mmHg 82%
    05:00 -3°C° 0 mm 2 m/s 762 mmHg 83%
    06:00 -3°C° 0 mm 2 m/s 762 mmHg 84%
    07:00 -3°C° 0 mm 2 m/s 762 mmHg 86%
    08:00 -3°C° 0 mm 2 m/s 762 mmHg 85%
    09:00 -2°C° 0 mm 3 m/s 762 mmHg 85%
    10:00 -2°C° 0 mm 3 m/s 762 mmHg 85%
    11:00 -2°C° 0 mm 3 m/s 762 mmHg 85%
    12:00 -1°C° 0 mm 3 m/s 762 mmHg 86%
    13:00 -1°C° 0 mm 3 m/s 762 mmHg 88%
    14:00 -1°C° 0 mm 3 m/s 762 mmHg 91%
    15:00 -1°C° 0 mm 3 m/s 762 mmHg 93%
    16:00 -1°C° 0 mm 3 m/s 762 mmHg 95%
    17:00 -1°C° 0 mm 3 m/s 762 mmHg 96%
    18:00 -1°C° 0 mm 3 m/s 762 mmHg 96%
    19:00 0°C° 0 mm 3 m/s 762 mmHg 96%
    20:00 0°C° 0 mm 3 m/s 762 mmHg 96%
    21:00 0°C° 0 mm 3 m/s 762 mmHg 96%
    22:00 0°C° 0 mm 3 m/s 762 mmHg 97%
    23:00 0°C° 0 mm 3 m/s 762 mmHg 96%

    Amanhã, 19 Dezembro, Quarta-feira

    Tempo Temperatura Precipitação Vento Pressão Humidade
    00:00 0°C° 0 mm 3 m/s 762 mmHg 96%
    01:00 0°C° 0 mm 3 m/s 762 mmHg 96%
    02:00 -1°C° 0 mm 4 m/s 761 mmHg 96%
    03:00 -1°C° 0 mm 4 m/s 761 mmHg 95%
    04:00 -1°C° 0 mm 4 m/s 761 mmHg 95%
    05:00 -1°C° 0 mm 4 m/s 760 mmHg 94%
    06:00 -1°C° 0 mm 5 m/s 760 mmHg 93%
    07:00 -2°C° 0 mm 5 m/s 760 mmHg 91%
    08:00 -1°C° 0 mm 5 m/s 759 mmHg 86%
    09:00 -2°C° 0 mm 6 m/s 759 mmHg 81%
    10:00 -2°C° 0 mm 6 m/s 759 mmHg 77%
    11:00 -2°C° 0 mm 6 m/s 758 mmHg 75%
    12:00 -2°C° 0 mm 6 m/s 758 mmHg 74%
    13:00 -1°C° 0 mm 6 m/s 758 mmHg 72%
    14:00 -2°C° 0 mm 6 m/s 757 mmHg 75%
    15:00 -2°C° 0 mm 6 m/s 757 mmHg 77%
    16:00 -3°C° 0 mm 6 m/s 757 mmHg 80%
    17:00 -3°C° 0 mm 6 m/s 756 mmHg 80%
    18:00 -3°C° 0 mm 6 m/s 756 mmHg 80%
    19:00 -2°C° 0 mm 5 m/s 756 mmHg 81%
    20:00 -2°C° 0.1 mm 5 m/s 756 mmHg 81%
    21:00 -2°C° 0.1 mm 5 m/s 756 mmHg 81%
    22:00 -2°C° 0.1 mm 5 m/s 756 mmHg 82%
    23:00 -2°C° 0.2 mm 4 m/s 756 mmHg 83%

    Depois de amanhã, 20 Dezembro, Quinta-feira

    Tempo Temperatura Precipitação Vento Pressão Humidade
    00:00 -2°C° 0.2 mm 4 m/s 756 mmHg 84%
    01:00 -2°C° 0.2 mm 4 m/s 756 mmHg 86%
    02:00 -2°C° 0.3 mm 4 m/s 756 mmHg 87%
    03:00 -2°C° 0.3 mm 4 m/s 755 mmHg 89%
    04:00 -2°C° 0.3 mm 4 m/s 755 mmHg 91%
    05:00 -2°C° 0.3 mm 4 m/s 755 mmHg 91%
    06:00 -2°C° 0.3 mm 4 m/s 755 mmHg 92%
    07:00 -2°C° 0.3 mm 4 m/s 755 mmHg 92%
    08:00 -2°C° 0.2 mm 4 m/s 755 mmHg 92%
    09:00 -2°C° 0.2 mm 4 m/s 755 mmHg 92%
    10:00 -1°C° 0.2 mm 3 m/s 755 mmHg 92%
    11:00 0°C° 0.3 mm 3 m/s 755 mmHg 92%
    12:00 0°C° 0.3 mm 3 m/s 755 mmHg 92%
    13:00 0°C° 0.3 mm 3 m/s 755 mmHg 93%
    14:00 0°C° 0.4 mm 3 m/s 755 mmHg 93%
    15:00 0°C° 0.4 mm 3 m/s 754 mmHg 94%
    16:00 -1°C° 0.4 mm 3 m/s 754 mmHg 95%
    17:00 0°C° 0.3 mm 3 m/s 754 mmHg 95%
    18:00 0°C° 0.3 mm 3 m/s 754 mmHg 95%
    19:00 0°C° 0.3 mm 3 m/s 754 mmHg 95%
    20:00 0°C° 0.2 mm 3 m/s 754 mmHg 96%
    21:00 0°C° 0.2 mm 3 m/s 754 mmHg 96%
    22:00 0°C° 0.2 mm 3 m/s 754 mmHg 97%
    23:00 0°C° 0 mm 3 m/s 754 mmHg 97%

    21 Dezembro, Sexta-feira

    Tempo Temperatura Precipitação Vento Pressão Humidade
    00:00 0°C° 0 mm 3 m/s 754 mmHg 97%
    01:00 0°C° 0 mm 3 m/s 754 mmHg 96%
    02:00 0°C° 0 mm 3 m/s 753 mmHg 96%
    03:00 0°C° 0 mm 3 m/s 753 mmHg 96%
    04:00 0°C° 0 mm 3 m/s 753 mmHg 96%
    05:00 0°C° 0 mm 3 m/s 752 mmHg 97%
    06:00 0°C° 0 mm 3 m/s 752 mmHg 97%
    07:00 0°C° 0 mm 3 m/s 752 mmHg 97%
    08:00 0°C° 0 mm 3 m/s 752 mmHg 97%
    09:00 +1°C° 0 mm 3 m/s 752 mmHg 97%
    10:00 +1°C° 0 mm 3 m/s 751 mmHg 97%
    11:00 +1°C° 0 mm 3 m/s 751 mmHg 97%
    12:00 +1°C° 0 mm 3 m/s 751 mmHg 97%
    13:00 +1°C° 0 mm 4 m/s 750 mmHg 97%
    14:00 +1°C° 0 mm 4 m/s 750 mmHg 96%
    15:00 0°C° 0 mm 4 m/s 749 mmHg 96%
    16:00 0°C° 0 mm 4 m/s 748 mmHg 96%
    17:00 0°C° 0.1 mm 5 m/s 747 mmHg 95%
    18:00 0°C° 0.1 mm 5 m/s 747 mmHg 95%
    19:00 -1°C° 0.1 mm 6 m/s 746 mmHg 94%
    20:00 -1°C° 0.6 mm 6 m/s 745 mmHg 94%
    21:00 -1°C° 0.6 mm 6 m/s 744 mmHg 94%
    22:00 +1°C° 0.6 mm 6 m/s 743 mmHg 93%
    23:00 +1°C° 0.9 mm 6 m/s 743 mmHg 93%

    22 Dezembro, Sábado

    Tempo Temperatura Precipitação Vento Pressão Humidade
    00:00 +2°C° 0.9 mm 6 m/s 743 mmHg 93%
    01:00 +3°C° 0.9 mm 5 m/s 743 mmHg 93%
    02:00 +3°C° 0.5 mm 6 m/s 743 mmHg 92%
    03:00 +3°C° 0.5 mm 7 m/s 743 mmHg 90%
    04:00 +3°C° 0.5 mm 7 m/s 743 mmHg 89%
    05:00 +3°C° 0.2 mm 7 m/s 743 mmHg 89%
    06:00 +3°C° 0.2 mm 6 m/s 743 mmHg 89%
    07:00 +3°C° 0.2 mm 6 m/s 744 mmHg 89%
    08:00 +3°C° 0.1 mm 6 m/s 744 mmHg 89%
    09:00 +3°C° 0.1 mm 6 m/s 744 mmHg 90%
    10:00 +4°C° 0.1 mm 6 m/s 744 mmHg 91%
    11:00 +5°C° 0.5 mm 5 m/s 744 mmHg 92%
    12:00 +5°C° 0.5 mm 5 m/s 743 mmHg 92%
    13:00 +5°C° 0.5 mm 5 m/s 743 mmHg 93%
    14:00 +5°C° 1.1 mm 5 m/s 743 mmHg 92%
    15:00 +5°C° 1.1 mm 5 m/s 743 mmHg 92%
    16:00 +5°C° 1.1 mm 5 m/s 742 mmHg 91%
    17:00 +5°C° 0.2 mm 5 m/s 743 mmHg 90%
    18:00 +4°C° 0.2 mm 6 m/s 743 mmHg 89%
    19:00 +4°C° 0.2 mm 6 m/s 743 mmHg 88%
    20:00 +4°C° 0.2 mm 6 m/s 743 mmHg 87%
    21:00 +4°C° 0.2 mm 7 m/s 743 mmHg 86%
    22:00 +2°C° 0.2 mm 8 m/s 744 mmHg 85%
    23:00 +2°C° 0.6 mm 8 m/s 744 mmHg 85%

    23 Dezembro, Domingo

    Tempo Temperatura Precipitação Vento Pressão Humidade
    00:00 +2°C° 0.6 mm 9 m/s 744 mmHg 85%
    01:00 +2°C° 0.6 mm 10 m/s 745 mmHg 85%
    02:00 +2°C° 0.3 mm 9 m/s 745 mmHg 85%
    03:00 +2°C° 0.3 mm 9 m/s 746 mmHg 85%
    04:00 +2°C° 0.3 mm 9 m/s 747 mmHg 85%
    05:00 +2°C° 0.1 mm 8 m/s 747 mmHg 86%
    06:00 +2°C° 0.1 mm 7 m/s 748 mmHg 87%
    07:00 +2°C° 0.1 mm 6 m/s 749 mmHg 88%
    08:00 +2°C° 0.1 mm 5 m/s 749 mmHg 89%
    09:00 +3°C° 0.1 mm 4 m/s 750 mmHg 90%
    10:00 +3°C° 0.1 mm 3 m/s 750 mmHg 91%
    11:00 +3°C° 0.3 mm 3 m/s 750 mmHg 91%
    12:00 +3°C° 0.3 mm 3 m/s 750 mmHg 91%
    13:00 +5°C° 0.3 mm 2 m/s 750 mmHg 91%
    14:00 +5°C° 0.4 mm 2 m/s 750 mmHg 92%
    15:00 +5°C° 0.4 mm 2 m/s 751 mmHg 92%
    16:00 +4°C° 0.4 mm 3 m/s 751 mmHg 92%
    17:00 +3°C° 0.5 mm 3 m/s 751 mmHg 92%
    18:00 +3°C° 0.5 mm 3 m/s 751 mmHg 92%
    19:00 +3°C° 0.5 mm 3 m/s 752 mmHg 93%
    20:00 +3°C° 0.3 mm 3 m/s 752 mmHg 92%
    21:00 +3°C° 0.3 mm 3 m/s 753 mmHg 91%
    22:00 +2°C° 0.3 mm 3 m/s 753 mmHg 90%
    23:00 +2°C° 0.1 mm 3 m/s 754 mmHg 90%
    Mostrar mais